loading
|
Showing default

DIAPASON (D1-A), 2016

Orbit data source: Space-Track

DIAPASON (D1-A), 2016 is a payload satellite owned by CNES (FR) in LEO that was launched on Thu, 17 Feb 1966 UTC via a DIAMANT A launch vehicle from the Hamma Guira Space Track Range (HGSTR). Payloads include a variety of satellites, spacecraft, and rockets equipped with specific instruments for various scientific and technological missions. These include communications satellites like Starlink; space stations such as the ISS; scientific satellites like the Hubble; Earth observation satellites from companies like Planet Labs, Umbra, and HawkEye 360; GPS; miniature CubeSats for education and research; and military/defense satellites.

Loading next visibility...
Loading greatness...
DIAPASON (D1-A) details
Identifier
2016, 1966-013A
Orbit
LEO
Last TLE update23 hours ago
Origin
Flag of FRCNES (FR)
ManufacturerCNES
MissionCivil Geodetic
Bus & MotorD-1, Unknown motor
Mass19 kg wet, 19 kg dry
Launch date (UTC)
1966-02-17 (59 years ago)
Launch vehicle
DIAMANT A
Launch site
Hamma Guira Space Track Range (HGSTR)
Object type
Payload
Rocket body
Debris
Shape & HBRCyl + 4 Pan + 4 Rod, 1.5 m
Radar Cross Section0.455 m², Large (>1 m²)

Expand to show TLE details & history

TLE from 23 hours ago
0 DIAPASON (D1-A)
1 02016U 66013A   24280.75844567  .00009602  00000-0  27754-2 0  9991
2 02016  34.0894  68.4793 1168407 152.4153 214.3732 12.63820451662079
Epoch: 2024-10-06T18:12Z
Definitive object data (Epoch: 2024-10-06T18:12:09.705Z)
Latitude-0.00003°
Longitude139.54302°
Altitude2,186.297 km
Speed6.474 km/s
True Right ascension04h 33m 55s
True Declination0° 00' 00"
Sunlit
Object was in daylight at TLE epoch
Predictive object data (real-time)
Latitude34.17268°
Longitude-130.7925°
Altitude944.197 km
Speed7.601 km/s
Apparent Right ascension07h 34m 19s
Apparent Declination0° 39' 37"
Sunlit
Object is in daylight
Predictive observer data (real-time)
Local Sidereal Time11:35:29
Azimuth250.408° W
Elevation22.796°
Doppler factor1
Orbital elements
Apogee2,320.278 km
Perigee500.271 km
Semi-major axis7,788.411 km
Eccentricity0.1168407
Inclination34.0894°
RAAN68.4793°
Arg. of periapsis152.4153°
True anomaly207.64537°
Mean anomaly214.3732°
Eccentric anomaly210.93209°
Mean motion3.15769 °/min
BSTAR0.0027754
Period114.01 mins
No data available

DIAPASON (D1-A) Visibility forecast

Observer location: 39.9160978°, -105.1181434

DIAPASON (D1-A) is not visible in the next 10 days
Span
Click to sort rows by Start time (UTC) header in descending order
Start Az.
Max El. time (UTC)
Max El. Az.
Max El.
End time (UTC)
End Az.